Wind_Speed
4 4 4 4 4 4 3 3 3 2 2 2 2 2 2 2 2 2 3 3 3 3 3 3 4 4 5 5 6 6 6 6 6 6 5 5 5 5 5 5 6 6 5 5 5 5 6 6 6
4 4 4 4 4 4 4 3 3 3 3 2 2 2 2 2 2 2 3 3 4 4 4 4 4 5 6 6 7 7 7 7 7 7 7 6 7 7 7 7 7 7 7 6 6 6 7 7 7
5 4 4 4 5 5 4 3 3 3 3 3 3 3 3 3 3 3 3 3 4 4 5 5 5 5 6 6 7 7 8 7 7 7 8 7 8 9 9 9 8 7 7 7 7 6 7 7 7
5 5 5 5 5 5 4 3 3 3 4 4 4 4 4 4 4 4 4 4 4 5 6 6 6 6 6 7 7 8 8 8 8 8 8 8 9 10 9 8 8 8 8 7 7 7 7 7 7
6 6 6 6 5 5 4 4 3 4 4 4 5 5 5 5 5 5 5 5 5 6 6 7 7 7 7 8 8 8 8 8 8 8 7 8 8 8 7 7 8 8 9 8 8 9 8 7 7
7 5 5 5 5 5 5 5 5 5 5 5 6 6 6 6 6 6 6 6 6 6 7 8 9 9 8 8 8 7 7 8 7 7 7 7 7 7 6 6 7 8 8 9 9 9 9 7 7
7 7 7 6 5 5 6 6 6 6 7 6 6 7 7 7 7 7 7 7 7 7 8 9 9 8 8 7 8 7 7 7 7 6 6 7 6 6 6 6 7 8 8 8 9 9 9 9 9
7 7 7 6 6 6 7 6 7 7 8 7 7 7 7 7 7 8 8 8 8 8 9 9 9 8 7 7 7 7 7 7 6 6 6 6 6 6 6 7 7 7 8 8 8 8 8 9 9
8 8 7 6 7 7 7 7 8 8 8 8 8 8 8 9 9 9 9 8 9 9 8 8 8 8 7 7 6 7 6 6 6 6 7 6 5 6 7 7 7 7 8 8 7 7 8 8 9
9 8 7 7 7 7 7 8 8 8 8 8 9 8 8 9 9 9 9 8 9 8 8 7 7 7 7 7 7 7 7 6 6 7 6 6 6 6 7 8 8 8 8 7 7 7 8 8 9
9 8 8 8 8 8 8 8 8 8 8 8 8 8 8 8 8 8 9 8 8 8 8 7 7 6 7 6 7 6 6 6 6 6 6 6 7 7 8 8 8 8 8 8 8 8 8 8 9
10 9 8 8 9 8 8 8 9 9 9 9 9 8 8 8 8 8 8 8 8 8 8 7 7 7 6 6 7 6 6 7 7 7 7 7 8 8 8 8 8 8 8 9 8 9 9 9 10
10 9 9 9 9 9 9 9 9 8 9 9 8 8 8 8 8 8 9 8 8 8 8 7 8 7 6 6 7 7 7 7 8 8 8 8 9 9 9 9 8 8 9 9 9 9 10 10 10
10 10 10 9 10 10 10 9 9 8 8 8 7 7 7 7 7 8 8 8 8 7 7 7 7 7 7 7 8 7 8 8 9 9 9 9 9 10 10 10 10 9 9 9 10 10 10 11 10
11 11 11 11 10 10 10 10 10 9 8 8 8 8 8 7 7 7 7 7 7 7 7 7 7 7 8 8 8 8 9 10 9 9 9 9 9 10 10 10 10 10 10 11 10 10 10 11 11
11 11 11 11 11 10 11 10 10 10 9 9 9 8 8 7 8 7 7 7 7 7 7 7 7 8 8 9 9 9 10 10 10 10 9 10 10 11 11 11 11 11 11 11 11 11 12 11 11
12 12 11 11 12 12 11 11 10 11 11 10 10 9 9 8 7 7 8 8 8 8 8 8 8 9 9 10 10 10 11 11 10 10 10 11 12 12 12 12 11 11 12 12 12 12 12 12 12
11 11 10 10 11 12 12 12 11 11 11 11 11 10 10 10 9 8 8 9 9 9 9 9 10 10 11 11 11 12 12 13 12 12 11 12 12 12 12 12 12 12 12 12 12 12 12 12 12
9 10 10 10 11 11 11 11 11 11 10 11 11 11 10 9 9 9 9 9 10 10 10 10 10 10 11 11 12 13 13 13 13 13 13 12 12 13 13 13 13 12 12 12 13 13 13 13 13
10 10 10 11 11 11 11 11 11 11 10 10 11 11 10 11 10 10 10 10 10 10 10 10 10 11 11 12 12 13 14 14 14 14 14 14 13 13 14 13 13 13 13 13 13 13 14 14 14
10 10 10 11 11 12 12 12 11 11 10 10 11 11 11 11 11 11 11 10 10 10 10 11 11 12 12 12 13 14 14 15 15 15 15 16 15 15 15 15 15 15 15 14 14 14 14 14 14
11 11 11 11 11 11 12 12 11 10 10 10 10 10 11 11 11 12 12 11 10 11 11 12 12 13 12 13 13 14 14 15 16 16 16 16 16 16 16 15 15 16 16 15 15 15 15 15 15
11 11 11 11 11 11 11 11 10 10 10 10 9 10 10 11 12 12 13 12 11 11 12 12 12 13 13 14 14 14 15 15 15 16 16 16 16 17 17 17 16 16 17 17 17 16 16 16 16
12 11 11 11 11 11 11 11 10 9 9 10 10 10 11 12 12 12 13 12 12 12 12 12 12 13 14 15 15 15 15 15 16 16 16 16 16 17 17 17 18 18 18 17 17 17 17 17 17
12 11 12 12 12 12 11 10 9 9 9 9 10 10 11 12 12 12 13 13 13 13 13 13 13 14 15 15 15 15 15 15 16 16 17 17 17 17 18 18 18 18 18 18 17 17 17 17 18
12 12 12 13 13 12 12 11 9 9 9 9 9 10 10 11 12 12 13 13 13 14 14 14 15 15 16 16 16 16 16 15 16 16 17 17 18 18 18 18 18 17 18 18 18 18 18 17 18
12 12 13 14 14 13 13 12 11 10 10 10 10 10 10 11 12 13 13 14 14 15 15 16 16 16 16 16 16 16 16 16 17 17 17 18 18 18 18 18 18 18 18 18 18 18 18 18 18
12 13 14 14 15 14 14 14 13 12 11 11 11 11 11 12 12 13 14 14 15 15 16 16 16 16 16 16 17 17 16 17 17 18 18 18 19 19 19 19 19 19 19 19 19 19 18 18 18
13 13 14 14 15 15 15 14 14 14 13 12 12 12 13 13 14 14 14 15 15 16 16 17 17 17 17 17 17 16 16 17 18 19 19 19 20 20 20 20 21 20 20 20 20 20 19 19 19
14 15 15 15 15 16 17 15 14 14 14 14 14 14 14 14 15 15 15 16 16 17 17 17 17 18 18 18 18 18 18 18 19 20 20 21 21 21 21 21 21 21 21 22 21 21 21 21 21
Wind_Direction
177 169 171 173 177 188 191 183 179 177 162 157 173 201 209 217 219 227 236 242 256 265 267 275 282 288 293 293 290 290 289 287 285 286 290 295 294 290 275 264 266 255 246 238 235 239 236 232 227
193 190 193 198 206 210 211 204 196 192 190 186 207 229 230 232 233 239 245 257 266 271 272 275 284 289 291 291 291 293 290 287 285 281 283 291 291 290 285 274 267 263 259 254 247 246 247 247 245
212 214 219 222 228 231 233 222 211 214 220 222 225 247 256 260 257 262 266 274 282 285 287 284 286 290 293 293 291 296 294 289 288 290 284 289 292 286 283 275 265 262 256 250 244 244 249 250 249
226 234 237 241 239 235 237 235 236 238 234 243 248 260 270 274 274 274 279 283 286 289 288 286 286 289 290 288 291 291 292 288 287 289 289 289 287 285 277 263 255 259 256 252 244 243 252 256 247
236 242 244 249 244 243 247 250 251 256 249 250 258 263 269 274 278 280 282 286 288 290 291 286 285 287 289 288 286 288 287 289 288 291 296 295 293 293 276 261 253 256 258 256 253 251 255 262 258
242 245 245 250 249 253 251 251 254 262 262 258 262 269 272 274 277 277 281 285 285 285 287 285 285 285 282 280 282 284 288 292 294 297 302 298 294 297 275 259 265 267 265 260 259 255 255 259 259
242 249 248 247 249 257 257 254 255 258 263 264 264 270 272 275 278 277 280 283 282 282 284 287 284 284 282 280 278 276 281 286 291 296 302 297 294 298 289 277 275 275 273 269 263 260 257 258 256
243 246 250 251 253 258 262 258 258 261 264 266 266 269 273 276 276 276 278 281 281 283 286 284 282 284 282 276 274 274 276 281 286 290 292 290 287 288 287 283 280 278 276 275 271 269 263 261 258
245 245 250 255 256 257 263 261 260 262 264 266 265 268 272 275 276 275 277 279 279 281 283 283 281 280 281 279 278 276 276 279 287 289 290 284 280 277 278 279 283 284 281 277 273 271 269 263 260
247 253 253 257 257 256 256 259 262 262 262 262 265 267 272 273 273 272 276 277 278 279 281 286 280 274 274 276 276 278 279 283 287 290 293 293 290 287 287 283 286 287 286 283 276 274 273 267 263
249 251 252 254 255 255 253 255 260 264 262 263 265 268 270 273 273 271 271 275 279 282 281 279 280 271 268 268 271 275 275 276 279 285 289 295 299 292 285 282 282 284 284 280 275 272 269 269 268
249 250 254 254 254 254 253 255 260 264 266 263 266 269 273 273 269 271 272 273 275 278 280 279 278 277 270 271 279 277 276 274 274 278 281 287 292 291 286 283 282 281 283 284 281 275 272 271 271
247 249 250 250 253 255 252 253 258 260 261 263 267 268 266 267 269 270 276 280 278 275 274 278 278 281 279 277 279 279 281 276 271 271 274 281 286 289 290 286 284 284 286 282 280 281 279 275 273
244 246 247 248 251 254 253 253 255 255 258 261 263 259 269 273 274 274 276 277 273 274 274 277 276 278 279 279 279 278 281 281 275 269 271 276 281 283 284 284 284 285 286 281 279 283 284 281 276
241 243 247 250 250 251 252 252 252 254 256 257 257 260 266 272 277 279 276 274 274 276 276 278 280 283 282 281 281 280 283 284 281 276 272 273 277 279 280 282 283 282 282 282 282 283 282 278 276
242 244 248 250 250 249 250 250 250 255 256 255 256 258 261 271 273 269 272 274 278 282 279 279 278 282 283 284 283 281 282 284 283 278 277 276 277 279 279 279 280 280 280 279 280 281 281 280 278
243 245 248 249 251 251 251 252 251 253 258 256 254 256 261 265 271 266 267 271 274 277 277 278 277 278 279 281 281 279 278 279 283 282 279 281 280 280 282 282 279 280 282 282 281 280 280 278 276
247 248 250 251 252 254 255 255 252 253 256 255 252 255 261 260 268 269 268 271 273 276 276 277 277 276 275 277 280 279 278 281 281 281 282 280 281 282 284 282 280 281 283 283 282 280 280 279 277
248 249 250 253 254 256 255 251 249 249 251 251 251 252 258 258 265 270 270 272 274 275 276 278 280 279 279 278 278 279 279 283 281 278 277 281 280 280 282 282 282 282 283 282 282 280 280 279 278
250 250 251 250 252 256 254 251 249 248 248 247 250 253 259 260 263 269 271 273 276 274 274 277 281 281 282 281 280 280 279 281 282 280 279 278 281 282 281 282 282 281 282 282 282 281 278 278 278
254 253 250 252 253 255 256 254 251 249 249 250 253 256 259 261 262 265 265 268 273 272 276 279 282 282 282 283 282 283 281 281 283 285 282 281 281 281 280 281 281 279 280 280 279 280 277 276 275
252 255 255 253 255 256 256 258 252 251 250 251 254 255 255 259 261 264 268 267 271 272 274 278 282 284 283 284 285 285 283 281 284 285 285 284 283 280 279 281 282 281 280 278 277 278 276 273 273
253 256 255 253 255 256 259 262 256 253 250 253 255 255 255 258 262 266 271 268 270 272 274 277 280 282 284 284 284 284 285 284 284 285 285 284 283 279 280 281 282 282 282 277 276 276 274 271 270
254 256 257 256 256 257 261 264 260 255 255 258 262 264 261 263 264 267 269 272 273 273 274 275 278 281 284 284 283 284 285 284 283 283 285 285 283 282 282 282 282 281 283 281 275 275 274 272 270
249 253 255 257 255 254 258 263 261 259 257 261 265 268 270 271 272 272 271 272 275 275 273 273 277 282 286 287 286 285 283 282 282 281 283 283 282 281 281 282 281 281 282 283 278 274 273 272 270
246 249 254 260 262 259 260 265 264 264 266 265 267 270 273 275 276 277 274 277 277 278 277 277 278 282 284 286 287 287 285 283 282 281 281 281 280 280 280 281 281 282 282 281 279 273 272 272 271
245 245 251 260 265 265 263 266 266 265 268 266 270 273 276 279 278 279 278 279 280 281 281 282 283 282 283 285 287 287 285 282 281 281 280 279 278 279 280 280 281 282 281 280 280 274 273 274 273
246 246 249 255 264 270 270 269 269 266 266 267 269 274 278 280 279 279 278 279 281 282 280 281 282 285 288 291 291 289 286 282 278 278 280 279 277 277 278 279 280 280 280 279 278 276 274 276 275
249 249 252 257 263 270 274 272 272 269 267 270 274 274 274 276 276 277 278 278 280 281 281 282 282 284 287 290 291 289 287 285 281 280 280 279 278 278 278 278 278 278 277 278 277 276 273 274 275
252 253 253 258 265 269 275 274 272 269 269 271 274 274 274 276 278 278 277 278 279 279 279 280 281 282 283 285 286 287 287 287 284 282 280 280 279 278 278 278 277 277 277 276 275 275 275 274 275
Height
5872 5872 5873 5874 5875 5875 5875 5875 5875 5875 5875 5875 5875 5876 5876 5877 5878 5880 5877 5876 5876 5876 5875 5875 5875 5875 5875 5874 5874 5874 5874 5874 5873 5873 5872 5871 5870 5869 5868 5868 5868 5867 5868 5868 5869 5869 5870 5870 5871
5871 5872 5874 5874 5874 5874 5874 5874 5874 5875 5875 5875 5875 5875 5876 5876 5876 5876 5875 5875 5875 5875 5874 5874 5874 5874 5874 5873 5873 5873 5872 5872 5872 5872 5871 5870 5869 5868 5867 5866 5866 5866 5867 5867 5868 5869 5869 5870 5870
5871 5872 5874 5873 5873 5873 5874 5873 5874 5874 5874 5874 5874 5875 5875 5875 5875 5875 5875 5874 5874 5874 5873 5873 5873 5873 5873 5872 5872 5871 5871 5871 5871 5870 5869 5869 5868 5866 5865 5864 5864 5865 5866 5866 5867 5868 5868 5868 5869
5871 5872 5873 5873 5872 5872 5872 5872 5873 5873 5873 5874 5874 5874 5874 5874 5874 5874 5873 5873 5873 5873 5872 5872 5872 5872 5871 5871 5871 5870 5870 5869 5869 5869 5868 5867 5866 5864 5860 5860 5863 5864 5865 5866 5866 5867 5867 5867 5868
5870 5871 5871 5871 5871 5871 5871 5871 5872 5872 5872 5873 5873 5873 5873 5873 5873 5872 5872 5872 5872 5871 5871 5870 5870 5870 5869 5869 5869 5869 5868 5868 5868 5867 5867 5866 5864 5862 5859 5859 5862 5864 5864 5865 5865 5866 5866 5866 5867
5869 5869 5870 5870 5870 5870 5870 5870 5870 5871 5871 5871 5872 5872 5872 5872 5872 5871 5870 5870 5870 5870 5869 5869 5868 5867 5866 5866 5867 5867 5867 5867 5866 5866 5865 5864 5864 5863 5861 5861 5862 5863 5863 5864 5864 5864 5865 5865 5865
5869 5869 5868 5869 5869 5869 5869 5869 5869 5869 5869 5870 5870 5870 5870 5870 5870 5869 5869 5869 5868 5868 5867 5866 5865 5864 5864 5864 5864 5865 5865 5865 5865 5864 5864 5863 5863 5862 5861 5862 5862 5862 5862 5862 5863 5863 5863 5863 5864
5866 5868 5867 5867 5867 5868 5868 5868 5867 5867 5868 5868 5869 5869 5868 5868 5868 5868 5867 5867 5866 5866 5865 5864 5863 5862 5862 5862 5862 5863 5863 5863 5863 5863 5863 5862 5862 5861 5861 5861 5861 5861 5861 5861 5861 5861 5862 5862 5862
5864 5866 5865 5865 5866 5866 5865 5866 5866 5865 5866 5866 5867 5867 5866 5866 5866 5866 5865 5865 5865 5864 5863 5862 5861 5861 5861 5861 5861 5861 5861 5862 5862 5862 5861 5861 5861 5860 5860 5860 5860 5860 5859 5859 5860 5859 5860 5860 5860
5863 5863 5864 5863 5864 5864 5863 5863 5863 5864 5864 5864 5864 5865 5864 5864 5864 5864 5864 5863 5863 5863 5862 5860 5859 5859 5859 5859 5859 5860 5860 5860 5860 5860 5860 5860 5859 5859 5859 5858 5858 5858 5858 5858 5858 5858 5858 5858 5858
5860 5861 5861 5861 5861 5861 5861 5861 5861 5861 5862 5862 5862 5863 5862 5862 5862 5862 5862 5862 5861 5861 5860 5859 5859 5858 5857 5858 5858 5858 5858 5858 5858 5858 5858 5858 5858 5858 5857 5857 5857 5857 5856 5856 5856 5856 5856 5856 5855
5858 5858 5858 5858 5858 5859 5859 5859 5859 5860 5860 5860 5860 5860 5860 5860 5860 5860 5860 5860 5860 5859 5859 5858 5858 5857 5856 5856 5856 5856 5856 5857 5857 5856 5857 5857 5856 5856 5856 5855 5855 5855 5854 5854 5854 5854 5854 5854 5853
5855 5855 5856 5856 5856 5856 5856 5857 5857 5857 5857 5857 5858 5858 5858 5858 5858 5858 5858 5858 5858 5857 5857 5856 5856 5855 5855 5855 5855 5855 5855 5855 5855 5854 5855 5855 5854 5854 5854 5853 5853 5853 5852 5852 5852 5851 5851 5851 5851
5852 5852 5853 5853 5853 5854 5854 5855 5855 5855 5855 5855 5856 5856 5856 5856 5856 5856 5855 5855 5855 5855 5854 5854 5854 5854 5853 5853 5853 5853 5852 5852 5852 5852 5852 5852 5852 5852 5851 5851 5851 5850 5850 5850 5849 5849 5849 5848 5848
5849 5850 5850 5850 5850 5851 5852 5852 5852 5852 5852 5853 5853 5854 5854 5854 5854 5854 5853 5853 5853 5853 5852 5852 5852 5851 5851 5851 5851 5851 5850 5850 5849 5849 5849 5849 5849 5849 5849 5849 5848 5848 5848 5847 5847 5847 5846 5846 5845
5846 5847 5847 5848 5847 5848 5850 5850 5850 5849 5849 5850 5851 5851 5852 5852 5851 5851 5851 5851 5851 5850 5850 5850 5850 5849 5849 5848 5848 5848 5847 5847 5847 5847 5847 5847 5846 5846 5846 5846 5845 5845 5845 5845 5844 5844 5843 5843 5843
5843 5844 5844 5845 5845 5845 5846 5846 5847 5847 5847 5847 5848 5849 5849 5849 5849 5849 5849 5848 5848 5848 5848 5848 5847 5847 5847 5846 5846 5845 5845 5844 5844 5844 5844 5844 5843 5843 5843 5843 5842 5842 5842 5841 5841 5841 5840 5840 5839
5841 5841 5841 5842 5842 5842 5842 5843 5843 5843 5844 5844 5845 5846 5846 5847 5847 5846 5846 5846 5846 5845 5845 5845 5844 5844 5844 5844 5843 5843 5842 5841 5841 5841 5841 5840 5840 5840 5840 5839 5839 5839 5838 5838 5837 5837 5837 5836 5836
5837 5837 5838 5839 5838 5839 5839 5839 5840 5840 5840 5841 5842 5843 5843 5844 5844 5843 5843 5843 5843 5843 5842 5842 5842 5841 5841 5841 5840 5840 5839 5838 5838 5837 5837 5837 5837 5836 5836 5836 5835 5835 5835 5834 5834 5833 5833 5832 5832
5834 5835 5835 5835 5835 5835 5836 5836 5837 5837 5837 5838 5838 5839 5840 5840 5841 5841 5840 5840 5840 5840 5839 5839 5839 5839 5838 5838 5837 5837 5836 5835 5835 5834 5834 5833 5833 5833 5832 5832 5832 5831 5831 5830 5829 5829 5829 5828 5828
5831 5832 5832 5832 5832 5832 5833 5833 5834 5834 5834 5835 5835 5836 5837 5837 5838 5838 5838 5837 5837 5836 5836 5836 5836 5836 5835 5834 5834 5833 5832 5832 5831 5831 5830 5829 5829 5828 5828 5828 5828 5827 5827 5826 5825 5825 5824 5824 5824
5829 5829 5829 5829 5829 5829 5830 5830 5831 5831 5831 5832 5832 5833 5833 5834 5834 5834 5834 5834 5834 5834 5833 5833 5833 5832 5832 5831 5830 5829 5829 5828 5827 5827 5826 5825 5825 5825 5824 5823 5823 5822 5822 5822 5821 5820 5820 5819 5819
5826 5826 5826 5826 5826 5827 5827 5827 5828 5828 5828 5829 5829 5830 5830 5830 5831 5831 5831 5831 5831 5831 5830 5830 5830 5829 5828 5827 5826 5825 5825 5824 5823 5822 5822 5821 5821 5820 5820 5819 5818 5818 5817 5817 5816 5816 5815 5815 5814
5823 5823 5823 5823 5823 5824 5824 5824 5825 5825 5825 5826 5826 5827 5827 5827 5827 5827 5827 5827 5827 5827 5827 5826 5826 5825 5824 5823 5822 5821 5820 5819 5819 5818 5817 5817 5816 5816 5815 5815 5814 5813 5813 5812 5811 5810 5810 5810 5810
5820 5820 5821 5820 5820 5820 5820 5820 5822 5822 5822 5823 5823 5823 5823 5824 5824 5823 5823 5823 5823 5823 5823 5823 5822 5822 5820 5819 5818 5817 5816 5815 5815 5814 5813 5813 5812 5811 5811 5810 5809 5809 5808 5807 5806 5805 5805 5805 5804
5816 5817 5818 5818 5817 5817 5816 5816 5819 5818 5818 5819 5819 5820 5820 5820 5820 5820 5819 5819 5819 5819 5819 5818 5818 5817 5816 5815 5814 5813 5812 5811 5810 5809 5808 5808 5807 5806 5805 5805 5804 5803 5802 5802 5801 5800 5800 5799 5799
5813 5813 5814 5814 5813 5813 5813 5814 5815 5814 5814 5815 5816 5816 5816 5816 5816 5816 5815 5815 5815 5815 5814 5814 5813 5812 5812 5811 5809 5808 5807 5806 5805 5804 5803 5803 5802 5801 5800 5799 5798 5798 5797 5796 5795 5795 5795 5794 5794
5810 5809 5810 5810 5809 5809 5810 5810 5811 5810 5811 5812 5812 5812 5812 5812 5812 5812 5811 5811 5811 5810 5810 5809 5809 5808 5807 5806 5805 5803 5802 5801 5800 5799 5798 5798 5797 5796 5795 5794 5793 5793 5792 5791 5790 5790 5789 5789 5788
5806 5806 5806 5806 5806 5806 5805 5809 5807 5807 5807 5807 5808 5808 5808 5808 5808 5808 5807 5807 5807 5806 5805 5804 5804 5803 5802 5801 5800 5799 5797 5796 5795 5794 5793 5792 5791 5790 5789 5788 5788 5787 5786 5786 5785 5784 5784 5784 5783
5802 5802 5802 5803 5803 5802 5801 5805 5803 5803 5803 5803 5803 5803 5804 5804 5803 5803 5803 5803 5802 5801 5800 5799 5798 5798 5797 5796 5795 5794 5792 5791 5790 5789 5787 5786 5785 5784 5784 5783 5782 5781 5780 5780 5779 5778 5778 5778 5777